H1 CPF 2 NER 2021 9 1 9 244 01 glonass122 H2 1004103 9122 37139 2021 9 1 0 0 0 2021 9 4 23 45 0 900 1 1 0 0 0 1 H9 10 0 59458 0.00000 0 10563809.555 -8337232.490 21628657.055 10 0 59458 900.00000 0 10620180.162 -5612037.047 22473515.688 10 0 59458 1800.00000 0 10877574.536 -2822135.422 22880613.344 10 0 59458 2700.00000 0 11336286.569 -36442.482 22842503.256 10 0 59458 3600.00000 0 11984576.883 2677060.889 22360419.447 10 0 59458 4500.00000 0 12799151.728 5253909.383 21444214.585 10 0 59458 5400.00000 0 13746143.588 7635575.512 20112131.532 10 0 59458 6300.00000 0 14782549.684 9771633.999 18390415.705 10 0 59458 7200.00000 0 15858065.695 11621581.462 16312778.135 10 0 59458 8100.00000 0 16917236.341 13156239.633 13919721.471 10 0 59458 9000.00000 0 17901832.103 14358688.011 11257743.147 10 0 59458 9900.00000 0 18753352.780 15224691.296 8378431.805 10 0 59458 10800.00000 0 19415554.118 15762607.779 5337474.329 10 0 59458 11700.00000 0 19836893.439 15992785.786 2193592.014 10 0 59458 12600.00000 0 19972793.956 15946475.784 -992574.715 10 0 59458 13500.00000 0 19787635.199 15664305.069 -4159613.175 10 0 59458 14400.00000 0 19256388.209 15194379.229 -7246496.786 10 0 59458 15300.00000 0 18365828.572 14590089.274 -10193734.707 10 0 59458 16200.00000 0 17115277.310 13907714.928 -12944492.937 10 0 59458 17100.00000 0 15516838.408 13203922.598 -15445667.550 10 0 59458 18000.00000 0 13595121.885 12533260.740 -17648891.403 10 0 59458 18900.00000 0 11386461.730 11945755.573 -19511456.661 10 0 59458 19800.00000 0 8937658.179 11484706.304 -20997136.678 10 0 59458 20700.00000 0 6304293.052 11184771.381 -22076891.984 10 0 59458 21600.00000 0 3548684.134 11070425.969 -22729446.817 10 0 59458 22500.00000 0 737559.594 11154856.307 -22941724.310 10 0 59458 23400.00000 0 -2060454.529 11439339.298 -22709130.467 10 0 59458 24300.00000 0 -4777432.384 11913136.109 -22035679.304 10 0 59458 25200.00000 0 -7348725.978 12553907.666 -20933954.032 10 0 59458 26100.00000 0 -9715416.112 13328638.178 -19424902.009 10 0 59458 27000.00000 0 -11826534.394 14195031.311 -17537464.214 10 0 59458 27900.00000 0 -13640962.506 15103323.193 -15308043.388 10 0 59458 28800.00000 0 -15128927.355 15998437.822 -12779818.517 10 0 59458 29700.00000 0 -16273027.167 16822394.826 -10001917.011 10 0 59458 30600.00000 0 -17068743.033 17516867.474 -7028459.478 10 0 59458 31500.00000 0 -17524412.243 18025781.118 -3917495.675 10 0 59458 32400.00000 0 -17660663.183 18297839.397 -729853.194 10 0 59458 33300.00000 0 -17509335.211 18288867.771 2472076.802 10 0 59458 34200.00000 0 -17111929.836 17963871.315 5625590.361 10 0 59458 35100.00000 0 -16517660.583 17298715.940 8668930.476 10 0 59458 36000.00000 0 -15781186.840 16281358.640 11542527.721 10 0 59458 36900.00000 0 -14960131.107 14912572.454 14190194.157 10 0 59458 37800.00000 0 -14112488.465 13206134.243 16560244.296 10 0 59458 38700.00000 0 -13294041.434 11188467.234 18606518.984 10 0 59458 39600.00000 0 -12555892.549 8897754.377 20289290.798 10 0 59458 40500.00000 0 -11942220.927 6382561.518 21576032.886 10 0 59458 41400.00000 0 -11488358.465 3700030.374 22442036.870 10 0 59458 42300.00000 0 -11219266.441 913719.405 22870869.117 10 0 59458 43200.00000 0 -11148475.212 -1908815.157 22854658.723 10 0 59458 44100.00000 0 -11277529.166 -4698595.788 22394214.233 10 0 59458 45000.00000 0 -11595957.125 -7387849.667 21498969.747 10 0 59458 45900.00000 0 -12081766.025 -9912575.464 20186764.423 10 0 59458 46800.00000 0 -12702433.733 -12214945.770 18483462.387 10 0 59458 47700.00000 0 -13416356.381 -14245447.785 16422422.812 10 0 59458 48600.00000 0 -14174687.170 -15964676.707 14043832.321 10 0 59458 49500.00000 0 -14923488.116 -17344711.141 11393913.825 10 0 59458 50400.00000 0 -15606103.967 -18370017.347 8524027.815 10 0 59458 51300.00000 0 -16165659.200 -19037848.656 5489683.407 10 0 59458 52200.00000 0 -16547574.549 -19358126.927 2349477.594 10 0 59458 53100.00000 0 -16701999.351 -19352813.698 -836017.906 10 0 59458 54000.00000 0 -16586059.765 -19054799.186 -4005402.381 10 0 59458 54900.00000 0 -16165830.661 -18506356.387 -7097604.349 10 0 59458 55800.00000 0 -15417950.263 -17757224.729 -10053032.036 10 0 59458 56700.00000 0 -14330810.982 -16862402.412 -12814696.294 10 0 59458 57600.00000 0 -12905276.810 -15879738.048 -15329286.594 10 0 59458 58500.00000 0 -11154896.503 -14867420.238 -17548181.387 10 0 59458 59400.00000 0 -9105601.815 -13881467.890 -19428375.132 10 0 59458 60300.00000 0 -6794900.521 -12973324.265 -20933305.476 10 0 59458 61200.00000 0 -4270594.340 -12187653.921 -22033565.254 10 0 59458 62100.00000 0 -1589070.956 -11560434.026 -22707485.681 10 0 59458 63000.00000 0 1186763.109 -11117420.070 -22941578.771 10 0 59458 63900.00000 0 3989826.882 -10873051.398 -22730828.971 10 0 59458 64800.00000 0 6751392.737 -10829844.427 -22078826.309 10 0 59458 65700.00000 0 9403695.246 -10978301.756 -20997735.758 10 0 59458 66600.00000 0 11882514.089 -11297344.133 -19508100.417 10 0 59458 67500.00000 0 14129624.002 -11755250.422 -17638479.077 10 0 59458 68400.00000 0 16095008.910 -12311068.891 -15424922.163 10 0 59458 69300.00000 0 17738746.074 -12916442.662 -12910293.530 10 0 59458 70200.00000 0 19032479.100 -13517773.547 -10143449.310 10 0 59458 71100.00000 0 19960415.436 -14058632.921 -7178288.545 10 0 59458 72000.00000 0 20519803.897 -14482316.531 -4072693.986 10 0 59458 72900.00000 0 20720870.091 -14734432.746 -887384.531 10 0 59458 73800.00000 0 20586211.384 -14765411.404 2315296.545 10 0 59458 74700.00000 0 20149676.784 -14532823.146 5472631.220 10 0 59458 75600.00000 0 19454780.222 -14003407.058 8522786.659 10 0 59458 76500.00000 0 18552716.469 -13154717.088 11406057.473 10 0 59458 77400.00000 0 17500066.637 -11976314.642 14066062.564 10 0 59458 78300.00000 0 16356293.819 -10470454.955 16450870.287 10 0 59458 79200.00000 0 15181138.336 -8652237.376 18514027.683 10 0 59458 80100.00000 0 14032025.873 -6549213.507 20215472.168 10 0 59458 81000.00000 0 12961600.388 -4200470.888 21522307.489 10 0 59458 81900.00000 0 12015487.208 -1655232.547 22409429.321 10 0 59458 82800.00000 0 11230380.766 1028966.616 22859989.671 10 0 59458 83700.00000 0 10632536.357 3788448.156 22865693.198 10 0 59458 84600.00000 0 10236727.104 6555810.891 22426922.323 10 0 59458 85500.00000 0 10045706.930 9262502.076 21552691.611 10 0 59459 0.00000 0 10050198.336 11841431.815 20260435.305 10 0 59459 900.00000 0 10229401.921 14229522.838 18575634.695 10 0 59459 1800.00000 0 10552002.168 16370091.604 16531295.457 10 0 59459 2700.00000 0 10977624.987 18214963.914 14167286.339 10 0 59459 3600.00000 0 11458682.823 19726241.533 11529553.740 10 0 59459 4500.00000 0 11942529.098 20877649.111 8669227.887 10 0 59459 5400.00000 0 12373830.991 21655409.696 5641637.900 10 0 59459 6300.00000 0 12697061.619 22058615.799 2505254.159 10 0 59459 7200.00000 0 12859008.309 22099083.466 -679422.688 10 0 59459 8100.00000 0 12811193.490 21800697.683 -3851006.271 10 0 59459 9000.00000 0 12512108.605 21198277.641 -6948382.526 10 0 59459 9900.00000 0 11929169.187 20336009.445 -9911860.960 10 0 59459 10800.00000 0 11040310.501 19265511.051 -12684299.358 10 0 59459 11700.00000 0 9835157.527 18043608.721 -15212182.514 10 0 59459 12600.00000 0 8315720.056 16729915.809 -17446636.234 10 0 59459 13500.00000 0 6496582.432 15384312.677 -19344358.908 10 0 59459 14400.00000 0 4404577.634 14064430.608 -20868453.985 10 0 59459 15300.00000 0 2077956.004 12823242.897 -21989148.017 10 0 59459 16200.00000 0 -434920.755 11706862.292 -22684380.509 10 0 59459 17100.00000 0 -3077310.343 10752636.257 -22940253.519 10 0 59459 18000.00000 0 -5786177.720 9987620.033 -22751330.908 10 0 59459 18900.00000 0 -8494557.230 9427492.627 -22120779.408 10 0 59459 19800.00000 0 -11134094.106 9075963.161 -21060346.107 10 0 59459 20700.00000 0 -13637661.760 8924695.156 -19590169.782 10 0 59459 21600.00000 0 -15941947.032 8953754.818 -17738426.545 10 0 59459 22500.00000 0 -17989895.496 9132567.340 -15540813.578 10 0 59459 23400.00000 0 -19732913.346 9421343.317 -13039878.292 10 0 59459 24300.00000 0 -21132731.685 9772916.709 -10284203.895 10 0 59459 25200.00000 0 -22162852.348 10134917.221 -7327465.920 10 0 59459 26100.00000 0 -22809511.663 10452184.582 -4227377.953 10 0 59459 27000.00000 0 -23072119.073 10669320.637 -1044547.831 10 0 59459 27900.00000 0 -22963150.256 10733268.220 2158731.608 10 0 59459 28800.00000 0 -22507498.327 10595803.899 5319730.974 10 0 59459 29700.00000 0 -21741310.804 10215834.918 8376544.469 10 0 59459 30600.00000 0 -20710362.895 9561399.076 11269333.707 10 0 59459 31500.00000 0 -19468038.274 8611279.458 13941527.451 10 0 59459 32400.00000 0 -18073005.860 7356163.085 16340950.913 10 0 59459 33300.00000 0 -16586694.166 5799292.947 18420860.220 10 0 59459 34200.00000 0 -15070673.201 3956585.543 20140860.322 10 0 59459 35100.00000 0 -13584057.109 1856209.554 21467687.971 10 0 59459 36000.00000 0 -12181038.832 -462355.185 22375844.939 10 0 59459 36900.00000 0 -10908661.260 -2949736.876 22848070.499 10 0 59459 37800.00000 0 -9804917.992 -5548507.528 22875646.052 10 0 59459 38700.00000 0 -8897261.624 -8195356.589 22458528.622 10 0 59459 39600.00000 0 -8201579.360 -10823510.165 21605313.498 10 0 59459 40500.00000 0 -7721675.224 -13365294.293 20333029.750 10 0 59459 41400.00000 0 -7449276.530 -15754735.796 18666775.327 10 0 59459 42300.00000 0 -7364560.300 -17930093.566 16639201.294 10 0 59459 43200.00000 0 -7437173.778 -19836217.161 14289857.101 10 0 59459 44100.00000 0 -7627703.213 -21426637.453 11664410.857 10 0 59459 45000.00000 0 -7889527.107 -22665305.635 8813760.456 10 0 59459 45900.00000 0 -8170974.975 -23527911.838 5793052.717 10 0 59459 46800.00000 0 -8417700.833 -24002731.866 2660628.907 10 0 59459 47700.00000 0 -8575172.477 -24090969.822 -523084.053 10 0 59459 48600.00000 0 -8591173.446 -23806584.718 -3696716.923 10 0 59459 49500.00000 0 -8418214.382 -23175609.817 -6799115.958 10 0 59459 50400.00000 0 -8015754.502 -22234993.656 -9770494.947 10 0 59459 51300.00000 0 -7352141.557 -21031010.701 -12553561.663 10 0 59459 52200.00000 0 -6406189.986 -19617306.641 -15094599.280 10 0 59459 53100.00000 0 -5168331.399 -18052657.915 -17344483.959 10 0 59459 54000.00000 0 -3641288.430 -16398536.486 -19259620.837 10 0 59459 54900.00000 0 -1840241.932 -14716578.835 -20802781.741 10 0 59459 55800.00000 0 207518.299 -13066062.334 -21943829.164 10 0 59459 56700.00000 0 2463448.419 -11501492.245 -22660312.711 10 0 59459 57600.00000 0 4879079.738 -10070398.720 -22937925.847 10 0 59459 58500.00000 0 7397771.300 -8811435.326 -22770812.752 10 0 59459 59400.00000 0 9956817.247 -7752858.986 -22161717.309 10 0 59459 60300.00000 0 12489825.062 -6911456.235 -21121968.730 10 0 59459 61200.00000 0 14929268.456 -6291962.853 -19671301.059 10 0 59459 62100.00000 0 17209110.299 -5887003.687 -17837506.881 10 0 59459 63000.00000 0 19267386.703 -5677557.874 -15655928.840 10 0 59459 63900.00000 0 21048643.443 -5633932.314 -13168796.132 10 0 59459 64800.00000 0 22506121.005 -5717204.163 -10424416.772 10 0 59459 65700.00000 0 23603594.027 -5881072.377 -7476240.049 10 0 59459 66600.00000 0 24316784.835 -6074039.872 -4381807.201 10 0 59459 67500.00000 0 24634288.651 -6241832.532 -1201611.490 10 0 59459 68400.00000 0 24557968.990 -6329950.142 2002108.417 10 0 59459 69300.00000 0 24102804.840 -6286237.752 5166615.576 10 0 59459 70200.00000 0 23296195.491 -6063364.556 8229934.947 10 0 59459 71100.00000 0 22176752.962 -5621101.130 11132098.659 10 0 59459 72000.00000 0 20792634.698 -4928294.796 13816348.533 10 0 59459 72900.00000 0 19199489.622 -3964456.381 16230269.422 10 0 59459 73800.00000 0 17458107.328 -2720889.060 18326828.898 10 0 59459 74700.00000 0 15631872.941 -1201310.625 20065301.349 10 0 59459 75600.00000 0 13784137.816 578057.077 21412057.966 10 0 59459 76500.00000 0 11975619.009 2588934.274 22341207.618 10 0 59459 77400.00000 0 10261938.078 4791944.456 22835077.398 10 0 59459 78300.00000 0 8691402.541 7138048.212 22884525.579 10 0 59459 79200.00000 0 7303121.735 9570387.540 22489083.487 10 0 59459 80100.00000 0 6125533.592 12026461.660 21656926.443 10 0 59459 81000.00000 0 5175400.598 14440542.266 20404677.300 10 0 59459 81900.00000 0 4457312.852 16746227.144 18757049.196 10 0 59459 82800.00000 0 3963714.736 18879026.181 16746336.913 10 0 59459 83700.00000 0 3675449.830 20778873.528 14411768.650 10 0 59459 84600.00000 0 3562797.472 22392463.602 11798732.075 10 0 59459 85500.00000 0 3586954.607 23675316.423 8957890.426 10 0 59460 0.00000 0 3701898.729 24593489.597 5944205.833 10 0 59460 900.00000 0 3856552.695 25124868.637 2815887.761 10 0 59460 1800.00000 0 3997160.935 25259985.586 -366713.144 10 0 59460 2700.00000 0 4069777.515 25002332.981 -3542247.385 10 0 59460 3600.00000 0 4022763.787 24368163.356 -6649524.090 10 0 59460 4500.00000 0 3809192.069 23385782.295 -9628663.772 10 0 59460 5400.00000 0 3389056.443 22094364.954 -12422226.471 10 0 59460 6300.00000 0 2731199.254 20542344.134 -14976295.829 10 0 59460 7200.00000 0 1814873.312 18785435.254 -17241500.259 10 0 59460 8100.00000 0 630874.184 16884378.101 -19173953.369 10 0 59460 9000.00000 0 -817806.058 14902486.588 -20736096.910 10 0 59460 9900.00000 0 -2515833.166 12903105.861 -21897430.721 10 0 59460 10800.00000 0 -4435902.472 10947080.135 -22635115.749 10 0 59460 11700.00000 0 -6539616.550 9090334.775 -22934437.925 10 0 59460 12600.00000 0 -8778836.547 7381672.284 -22789122.563 10 0 59460 13500.00000 0 -11097455.354 5860873.796 -22201491.221 10 0 59460 14400.00000 0 -13433522.847 4557185.979 -21182455.393 10 0 59460 15300.00000 0 -15721637.983 3488258.080 -19751344.133 10 0 59460 16200.00000 0 -17895510.315 2659575.684 -17935565.825 10 0 59460 17100.00000 0 -19890585.195 2064417.310 -15770107.478 10 0 59460 18000.00000 0 -21646622.616 1684338.097 -13296878.607 10 0 59460 18900.00000 0 -23110120.413 1490162.192 -10563910.256 10 0 59460 19800.00000 0 -24236477.785 1443443.242 -7624423.421 10 0 59460 20700.00000 0 -24991805.188 1498331.625 -4535784.744 10 0 59460 21600.00000 0 -25354301.189 1603768.554 -1358370.471 10 0 59460 22500.00000 0 -25315135.230 1705912.157 1845637.501 10 0 59460 23400.00000 0 -24878796.632 1750689.766 5013497.410 10 0 59460 24300.00000 0 -24062893.649 1686364.475 8083167.849 10 0 59460 25200.00000 0 -22897410.772 1466003.108 10994554.411 10 0 59460 26100.00000 0 -21423456.508 1049737.054 13690714.940 10 0 59460 27000.00000 0 -19691556.458 406716.680 16118996.848 10 0 59460 27900.00000 0 -17759566.384 -483326.052 18232081.899 10 0 59460 28800.00000 0 -15690296.340 -1628974.416 19988916.411 10 0 59460 29700.00000 0 -13548948.953 -3026530.270 21355508.181 10 0 59460 30600.00000 0 -11400482.045 -4659948.545 22305574.930 10 0 59460 31500.00000 0 -9307008.132 -6501304.134 22821032.895 10 0 59460 32400.00000 0 -7325340.381 -8511769.576 22892318.091 10 0 59460 33300.00000 0 -5504787.101 -10643060.322 22518536.594 10 0 59460 34200.00000 0 -3885285.206 -12839284.847 21707443.783 10 0 59460 35100.00000 0 -2495947.604 -15039120.582 20475255.945 10 0 59460 36000.00000 0 -1354081.376 -17178223.778 18846300.699 10 0 59460 36900.00000 0 -464713.417 -19191772.488 16852515.504 10 0 59460 37800.00000 0 179361.141 -21017037.402 14532805.949 10 0 59460 38700.00000 0 597013.996 -22595874.929 11932277.622 10 0 59460 39600.00000 0 817729.487 -23877040.878 9101357.206 10 0 59460 40500.00000 0 880108.102 -24818231.087 6094819.891 10 0 59460 41400.00000 0 829992.171 -25387766.958 2970741.311 10 0 59460 42300.00000 0 718293.038 -25565858.456 -210606.724 10 0 59460 43200.00000 0 598610.640 -25345394.491 -3387897.019 10 0 59460 44100.00000 0 524744.351 -24732229.547 -6499904.232 10 0 59460 45000.00000 0 548197.962 -23744955.708 -9486658.333 10 0 59460 45900.00000 0 715781.753 -22414169.651 -12290574.434 10 0 59460 46800.00000 0 1067410.614 -20781264.335 -14857539.465 10 0 59460 47700.00000 0 1634189.347 -18896793.998 -17137936.856 10 0 59460 48600.00000 0 2436864.959 -16818478.138 -19087591.333 10 0 59460 49500.00000 0 3484711.282 -14608924.608 -20668617.014 10 0 59460 50400.00000 0 4774894.131 -12333163.554 -21850153.233 10 0 59460 51300.00000 0 6292346.118 -10056091.813 -22608974.079 10 0 59460 52200.00000 0 8010159.884 -7839931.536 -22929959.361 10 0 59460 53100.00000 0 9890487.365 -5741807.028 -22806416.529 10 0 59460 54000.00000 0 11885912.004 -3811539.657 -22240245.416 10 0 59460 54900.00000 0 13941240.940 -2089752.703 -21241939.997 10 0 59460 55800.00000 0 15995646.094 -606366.118 -19830424.155 10 0 59460 56700.00000 0 17985067.658 620454.312 -18032721.476 10 0 59460 57600.00000 0 19844781.280 1584847.280 -15883462.333 10 0 59460 58500.00000 0 21512021.922 2293280.330 -13424235.099 10 0 59460 59400.00000 0 22928553.567 2764045.158 -10702791.919 10 0 59460 60300.00000 0 24043074.966 3026243.522 -7772123.108 10 0 59460 61200.00000 0 24813357.324 3118305.766 -4689417.885 10 0 59460 62100.00000 0 25208020.619 3086104.911 -1514932.307 10 0 59460 63000.00000 0 25207870.244 2980747.569 1689211.923 10 0 59460 63900.00000 0 24806734.556 2856137.725 4860271.771 10 0 59460 64800.00000 0 24011765.743 2766420.046 7936142.987 10 0 59460 65700.00000 0 22843190.112 2763415.017 10856608.023 10 0 59460 66600.00000 0 21333518.371 2894158.628 13564543.911 10 0 59460 67500.00000 0 19526250.367 3198654.635 16007063.484 10 0 59460 68400.00000 0 17474131.006 3707937.632 18136565.216 10 0 59460 69300.00000 0 15237033.564 4442530.979 19911669.516 10 0 59460 70200.00000 0 12879562.408 5411365.747 21298022.556 10 0 59460 71100.00000 0 10468478.482 6611206.172 22268952.296 10 0 59460 72000.00000 0 8070057.734 8026604.691 22805965.092 10 0 59460 72900.00000 0 5747494.238 9630386.561 22899075.265 10 0 59460 73800.00000 0 3558456.558 11384641.421 22546963.754 10 0 59460 74700.00000 0 1552898.265 13242177.735 21756965.668 10 0 59460 75600.00000 0 -228788.509 15148377.085 20544889.957 10 0 59460 76500.00000 0 -1757202.898 17043369.125 18934677.530 10 0 59460 77400.00000 0 -3014892.974 18864435.378 16957906.960 10 0 59460 78300.00000 0 -3996805.876 20548541.510 14653159.348 10 0 59460 79200.00000 0 -4710216.103 22034893.282 12065256.062 10 0 59460 80100.00000 0 -5174139.034 23267411.090 9244384.898 10 0 59460 81000.00000 0 -5418257.638 24197022.187 6245131.687 10 0 59460 81900.00000 0 -5481409.793 24783677.534 3125435.511 10 0 59460 82800.00000 0 -5409700.947 24998011.828 -54513.260 10 0 59460 83700.00000 0 -5254321.689 24822579.934 -3233412.415 10 0 59460 84600.00000 0 -5069161.183 24252620.104 -6350004.802 10 0 59460 85500.00000 0 -4908315.317 23296313.410 -9344232.443 10 0 59461 0.00000 0 -4823592.380 21974528.975 -12158367.912 10 0 59461 900.00000 0 -4862119.439 20320064.671 -14738103.826 10 0 59461 1800.00000 0 -5064147.204 18376414.285 -17033580.684 10 0 59461 2700.00000 0 -5461146.136 16196108.791 -19000336.221 10 0 59461 3600.00000 0 -6074271.515 13838698.954 -20600158.625 10 0 59461 4500.00000 0 -6913263.759 11368459.211 -21801828.232 10 0 59461 5400.00000 0 -7975831.298 8851905.193 -22581733.583 10 0 59461 6300.00000 0 -9247544.798 6355224.929 -22924349.442 10 0 59461 7200.00000 0 -10702250.656 3941728.117 -22822566.216 10 0 59461 8100.00000 0 -12302990.662 1669417.863 -22277862.507 10 0 59461 9000.00000 0 -14003393.608 -411214.849 -21300314.898 10 0 59461 9900.00000 0 -15749484.617 -2259081.693 -19908441.813 10 0 59461 10800.00000 0 -17481839.856 -3843992.635 -18128881.335 10 0 59461 11700.00000 0 -19137998.741 -5147692.326 -15995906.071 10 0 59461 12600.00000 0 -20655033.607 -6164391.624 -13550781.752 10 0 59461 13500.00000 0 -21972168.780 -6900769.748 -10840979.791 10 0 59461 14400.00000 0 -23033337.513 -7375445.112 -7919257.719 10 0 59461 15300.00000 0 -23789566.589 -7617935.867 -4842625.003 10 0 59461 16200.00000 0 -24201084.833 -7667153.830 -1671214.991 10 0 59461 17100.00000 0 -24239062.983 -7569496.314 1532913.484 10 0 59461 18000.00000 0 -23886907.989 -7376618.551 4707018.946 10 0 59461 18900.00000 0 -23141054.191 -7142984.046 7788937.238 10 0 59461 19800.00000 0 -22011215.921 -6923300.290 10718330.681 10 0 59461 20700.00000 0 -20520090.044 -6769952.493 13437898.491 10 0 59461 21600.00000 0 -18702521.285 -6730547.963 15894521.830 10 0 59461 22500.00000 0 -16604166.910 -6845678.505 18040318.609 10 0 59461 23400.00000 0 -14279719.263 -7146998.064 19833585.757 10 0 59461 24300.00000 0 -11790763.558 -7655698.350 21239609.898 10 0 59461 25200.00000 0 -9203363.581 -8381447.131 22231330.879 10 0 59461 26100.00000 0 -6585478.889 -9321833.155 22789846.378 10 0 59461 27000.00000 0 -4004323.205 -10462339.353 22904749.776 10 0 59461 27900.00000 0 -1523774.903 -11776843.157 22574297.208 10 0 59461 28800.00000 0 798052.826 -13228620.214 21805403.455 10 0 59461 29700.00000 0 2910982.684 -14771806.843 20613469.728 10 0 59461 30600.00000 0 4774597.313 -16353257.793 19022049.497 10 0 59461 31500.00000 0 6359644.355 -17914719.910 17062361.410 10 0 59461 32400.00000 0 7648968.395 -19395230.097 14772660.750 10 0 59461 33300.00000 0 8637935.446 -20733637.446 12197483.035 10 0 59461 34200.00000 0 9334336.586 -21871145.103 9386775.262 10 0 59461 35100.00000 0 9757778.670 -22753767.377 6394931.727 10 0 59461 36000.00000 0 9938590.606 -23334601.678 3279752.556 10 0 59461 36900.00000 0 9916293.041 -23575822.794 101344.106 10 0 59461 37800.00000 0 9737696.527 -23450318.645 -3079019.100 10 0 59461 38700.00000 0 9454707.883 -22942901.208 -6200050.877 10 0 59461 39600.00000 0 9121935.805 -22051043.534 -9201608.102 10 0 59461 40500.00000 0 8794194.616 -20785112.663 -12025823.724 10 0 59461 41400.00000 0 8524008.997 -19168088.391 -14618198.573 10 0 59461 42300.00000 0 8359222.477 -17234778.321 -16928632.959 10 0 59461 43200.00000 0 8340808.396 -15030559.665 -18912380.115 10 0 59461 44100.00000 0 8500974.224 -12609697.152 -20530904.544 10 0 59461 45000.00000 0 8861638.606 -10033303.626 -21752629.519 10 0 59461 45900.00000 0 9433345.874 -7367024.416 -22553559.615 10 0 59461 46800.00000 0 10214665.477 -4678538.143 -22917765.739 10 0 59461 47700.00000 0 11192104.363 -2034974.805 -22837722.022 10 0 59461 48600.00000 0 12340539.564 499643.926 -22314486.214 10 0 59461 49500.00000 0 13624156.898 2866837.236 -21357717.490 10 0 59461 50400.00000 0 14997860.405 5015869.591 -19985528.429 10 0 59461 51300.00000 0 16409097.032 6905634.625 -18224170.863 10 0 59461 52200.00000 0 17800022.855 8506138.475 -16107558.516 10 0 59461 53100.00000 0 19109921.499 9799518.391 -13676632.984 10 0 59461 54000.00000 0 20277773.580 10780551.742 -10978583.076 10 0 59461 54900.00000 0 21244868.113 11456631.875 -8065931.281 10 0 59461 55800.00000 0 21957343.716 11847210.161 -4995504.713 10 0 59461 56700.00000 0 22368549.426 11982726.945 -1827311.113 10 0 59461 57600.00000 0 22441121.802 11903076.754 1376656.669 10 0 59461 58500.00000 0 22148686.833 11655673.978 4553661.909 10 0 59461 59400.00000 0 21477111.313 11293203.297 7641483.743 10 0 59461 60300.00000 0 20425248.072 10871153.409 10579667.443 10 0 59461 61200.00000 0 19005141.889 10445242.263 13310737.325 10 0 59461 62100.00000 0 17241686.871 10068846.821 15781345.540 10 0 59461 63000.00000 0 15171750.297 9790549.732 17943331.832 10 0 59461 63900.00000 0 12842801.493 9651909.672 19754671.755 10 0 59461 64800.00000 0 10311105.605 9685551.483 21180294.163 10 0 59461 65700.00000 0 7639560.662 9913657.589 22192752.247 10 0 59461 66600.00000 0 4895271.084 10346923.850 22772736.105 10 0 59461 67500.00000 0 2146961.052 10984022.391 22909418.880 10 0 59461 68400.00000 0 -537663.132 11811591.699 22600632.188 10 0 59461 69300.00000 0 -3094491.552 12804751.590 21852870.321 10 0 59461 70200.00000 0 -5465423.778 13928118.433 20681126.120 10 0 59461 71100.00000 0 -7600518.347 15137275.369 19108564.549 10 0 59461 72000.00000 0 -9459792.333 16380633.557 17166042.851 10 0 59461 72900.00000 0 -11014600.055 17601605.070 14891488.659 10 0 59461 73800.00000 0 -12248537.937 18740995.806 12329149.538 10 0 59461 74700.00000 0 -13157842.115 19739518.528 9528729.375 10 0 59461 75600.00000 0 -13751266.357 20540321.974 6544428.495 10 0 59461 76500.00000 0 -14049448.849 21091431.979 3433905.545 10 0 59461 77400.00000 0 -14083796.854 21348004.602 257180.301 10 0 59461 78300.00000 0 -13894937.514 21274299.329 -2924502.992 10 0 59461 79200.00000 0 -13530800.146 20845291.882 -6049831.701 10 0 59461 80100.00000 0 -13044409.896 20047860.851 -9058580.101 10 0 59461 81000.00000 0 -12491483.972 18881499.445 -11892743.928 10 0 59461 81900.00000 0 -11927929.397 17358522.613 -14497634.673 10 0 59461 82800.00000 0 -11407345.134 15503759.903 -16822914.582 10 0 59461 83700.00000 0 -10978631.343 13353744.868 -18823554.356 10 0 59461 84600.00000 0 -10683804.467 10955431.887 -20460696.565 10 0 59461 85500.00000 0 -10556108.862 8364490.380 -21702408.948 99